Regional Weather Roundup
Issued by NWS

Home | Current Version | Previous Version | Graphics & Text | Print | Product List | Glossary Off
Versions: 1 2 3 4 5 6 7 8 9 10 11 12 13 14 15 16 17 18 19 20 21 22 23 24 25 26 27 28 29 30 31 32 33 34 35 36 37 38 39 40 41 42 43 44 45 46 47 48 49 50

000
ASUS45 KPSR 240410
RWRAZ

ARIZONA HOURLY REGIONAL WEATHER ROUNDUP
NATIONAL WEATHER SERVICE PHOENIX AZ
900 PM MST SUN APR 23 2017

NOTE: FAIR INDICATES FEW OR NO CLOUDS BELOW 12,000 FEET WITH NO
SIGNIFICANT WEATHER AND/OR OBSTRUCTIONS TO VISIBILITY.

AZZ001>003-036-240500-
NORTHWEST ARIZONA

CITY           SKY/WX    TMP DP  RH WIND       PRES   REMARKS
BULLHEAD CITY  PTCLDY    88  23   9 W17G28    29.59R
KINGMAN        CLEAR     62  22  21 S10       29.77R
$$

AZZ004>008-015-016-018-240500-
NORTH CENTRAL ARIZONA

CITY           SKY/WX    TMP DP  RH WIND       PRES   REMARKS
GRAND CANYON   CLEAR     55  11  17 SW13      29.95R
WILLIAMS       CLEAR     55  16  21 S7        29.99R
PRESCOTT       CLEAR     64  20  18 S5        29.91R
FLAGSTAFF      CLEAR     59  17  19 SW16G30   29.95S
PAYSON         PTCLDY    66  18  15 CALM      29.94F
PAGE           CLEAR     74  13   9 W8G22     29.75R
$$

AZZ009>014-017-240500-
NORTHEAST ARIZONA

CITY           SKY/WX    TMP DP  RH WIND       PRES   REMARKS
WINSLOW        CLEAR     63  17  17 S10       29.86F
SAINT JOHNS    MOCLDY    63  19  18 SW8       29.94R
WINDOW ROCK    CLEAR     57  17  21 SW7       29.96S
SHOW LOW       MOCLDY    57  16  19 S10       30.00S
$$

AZZ540-542>544-546-548-240500-
GREATER PHOENIX AREA

CITY           SKY/WX    TMP DP  RH WIND       PRES   REMARKS
PHOENIX        PTCLDY    88  27  11 W8        29.67R
BUCKEYE        CLEAR     79  25  13 SW9       29.68S
LUKE AFB       CLEAR     84  25  11 SW12      29.67R
DEER VALLEY    CLEAR     85  21   9 SW13      29.69R
SCOTTSDALE     CLEAR     87  22   9 SW7       29.71R
MESA-GATEWAY   PTCLDY    84  27  12 SW9       29.71R
CHANDLER       CLEAR     86  25  10 SW14      29.69R
$$

AZZ539-553-240500-
SOUTHWEST MARICOPA COUNTY AND PINAL COUNTY

CITY           SKY/WX    TMP DP  RH WIND       PRES   REMARKS
CASA GRANDE    MOCLDY    82  32  16 W8        29.73R
GILA BEND      FAIR      86  23  10 S12       29.68R
$$

AZZ503-504-507>509-240500-
SOUTHEAST ARIZONA

CITY           SKY/WX    TMP DP  RH WIND       PRES   REMARKS
TUCSON         PTCLDY    83  21  10 W7        29.84R
DAVIS-MONTHAN  MOCLDY    82  21  10 W6        29.83R
NOGALES        CLEAR     70  14  11 S5        29.92R
SIERRA VISTA   CLEAR     71   7   8 W14       29.96S
DOUGLAS        CLEAR     71  15  11 SW6       29.91R
SAFFORD        PTCLDY    73  26  17 NW7       29.80R
$$

AZZ532-240500-
SOUTHWEST ARIZONA

CITY           SKY/WX    TMP DP  RH WIND       PRES   REMARKS
YUMA           CLEAR     82  14   8 W7        29.68R
$$

CAZ041-043-047-048-061-525>527-560>570-240500-
SOUTHERN CALIFORNIA

CITY           SKY/WX    TMP DP  RH WIND       PRES   REMARKS
DOWNTOWN L.A.  CLEAR     62  51  67 CALM      29.85R
L.A. AIRPORT   PTCLDY    61  54  77 SW9       29.86R
SAN DIEGO      MOCLDY    63  54  72 S5        29.90S
BURBANK        CLEAR     63  49  60 SE10      29.84R
ONTARIO        PTCLDY    62  53  72 W6        29.85R
RIVERSIDE      CLEAR     64  54  69 W6        29.85R
PALM SPRINGS   CLEAR     82  32  16 NW15G29   29.69R
EL CENTRO NAS  LGT RAIN  80  19  10 W22G29    29.71R
IMPERIAL       CLEAR     79  25  13 W23G31    29.67R
BLYTHE         CLEAR     84  25  11 SW10      29.65R
NEEDLES        PTCLDY    88  26  10 W15       29.63R
$$

NVZ020-UTZ003-240500-
SOUTHERN NEVADA-UTAH

CITY           SKY/WX    TMP DP  RH WIND       PRES   REMARKS
LAS VEGAS      PTCLDY    79  16   9 S12       29.66R
SALT LAKE CITY PTCLDY    54  37  52 S8        29.81R
$$

NMZ009-TXZ055-240500-
NEW MEXICO-WEST TEXAS

CITY           SKY/WX    TMP DP  RH WIND       PRES   REMARKS
ALBUQUERQUE    PTCLDY    68  29  23 S22       29.91R
EL PASO        CLEAR     76  29  17 SE10      29.91R
$$


........................KEY........................
SKY/WX - SKY CONDITION/WEATHER
TMP    - TEMPERATURE IN FAHRENHEIT
DP     - DEW POINT IN FAHRENHEIT
RH     - RELATIVE HUMIDITY IN PERCENT
WIND   - DIRECTION AND SPEED IN MILES PER HOUR (MPH)
VRB    - VARIABLE WIND DIRECTION
PRES   - MEAN SEA LEVEL PRESSURE IN INCHES OF MERCURY
         F - FALLING PRESSURE   R - RISING PRESSURE
         S - STEADY PRESSURE
VSB    - VISIBILITY IN MILES
HX     - HEAT INDEX IN FAHRENHEIT
WCI    - WIND CHILL INDEX IN FAHRENHEIT
TC     - TEMPERATURE IN CELSIUS WHICH IS ALSO KNOWN AS
         TEMPERATURE IN CENTIGRADE
AFB    - AIR FORCE BASE
         LUKE AFB IS LUKE AIR FORCE BASE
         DAVIS-MONTHAN IS DAVIS-MONTHAN AIR FORCE BASE
NAS    - NAVAL AIR STATION
         EL CENTRO NAS IS EL CENTRO NAVAL AIR STATION
N/A    - NOT AVAILABLE




USA.gov is the U.S. government's official web portal to all federal, state and local government web resources and services.